This is the latest recevied weather packets stored in our database for station/object WA4IKQ. If no packets are shown the sender has not sent any weather packets the latest 10 day(s).
| Time | Temp. | Humidity | Pressure | Rain* | Wind** | Luminosity | Snow |
|---|---|---|---|---|---|---|---|
| 1777944574 | 22.22° C | 67% | 1015.8 hPa | 0 mm | 1.34 m/s, 83° | - | - |
| 1777944525 | 22.22° C | 67% | 1015.8 hPa | 0 mm | 1.34 m/s, 83° | - | - |
| 1777944360 | 22.22° C | 66% | 1015.8 hPa | 0 mm | 0 m/s | - | - |
| 1777944312 | 22.22° C | 67% | 1015.8 hPa | 0 mm | 1.34 m/s, 83° | - | - |
| 1777944008 | 22.22° C | 66% | 1015.7 hPa | 0 mm | 0.89 m/s, 72° | - | - |
| 1777943710 | 22.22° C | 66% | 1015.7 hPa | 0 mm | 0.89 m/s, 72° | - | - |
| 1777941521 | 22.78° C | 63% | 1015.4 hPa | 0 mm | 2.68 m/s, 24° | - | - |
| 1777939897 | 23.33° C | 61% | 1015.4 hPa | 0 mm | 1.34 m/s, 44° | - | - |
| 1777939507 | 23.33° C | 61% | 1015.4 hPa | 0 mm | 1.34 m/s, 44° | - | - |
| 1777938821 | 23.89° C | 59% | 1015.1 hPa | 0 mm | 0.89 m/s, 21° | - | - |
| 1777937243 | 24.44° C | 57% | 1015 hPa | 0 mm | 2.24 m/s, 34° | - | - |
| 1777937020 | 24.44° C | 57% | 1015 hPa | 0 mm | 2.24 m/s, 70° | - | - |
| 1777936804 | 24.44° C | 57% | 1015 hPa | 0 mm | 2.24 m/s, 70° | - | - |
| 1777936691 | 25° C | 57% | 1015 hPa | 0 mm | 1.79 m/s, 37° | - | - |
| 1777936296 | 25° C | 56% | 1015 hPa | 0 mm | 1.79 m/s, 53° | - | - |
| 1777935820 | 25° C | 56% | 1015 hPa | 0 mm | 1.34 m/s, 76° | - | - |
| 1777935215 | 25° C | 55% | 1015 hPa | 0 mm | 2.68 m/s, 347° | - | - |
| 1777934885 | 25° C | 55% | 1015 hPa | 0 mm | 2.24 m/s, 44° | - | - |
| 1777934703 | 25° C | 55% | 1015 hPa | 0 mm | 2.24 m/s, 44° | - | - |
| 1777934620 | 25° C | 55% | 1015.1 hPa | 0 mm | 4.02 m/s, 38° | - | - |
| 1777934404 | 25° C | 55% | 1015.1 hPa | 0 mm | 4.02 m/s, 38° | - | - |
| 1777934293 | 25° C | 55% | 1015.1 hPa | 0 mm | 1.34 m/s, 97° | - | - |
| 1777934255 | 25° C | 55% | 1015.1 hPa | 0 mm | 1.34 m/s, 97° | - | - |
| 1777934104 | 25° C | 55% | 1015.1 hPa | 0 mm | 1.34 m/s, 97° | - | - |
| 1777933930 | 25° C | 55% | 1015 hPa | 0 mm | 2.24 m/s, 8° | - | - |
* Rain latest hour (hover to see other rain measurements)
** Current wind speed in m/s (hover to see current wind gust speed)